Santa Fe, NM

6:57 AM MDT on June 21, 2018 (GMT -0600)
Santa Fe Municipal

Weather History for KSAF - September, 2017

Change the Weather History Date:

Wednesday, September 13, 2017

  Actual Average Record
Temperature  
Mean Temperature 70 °F -  
Max Temperature 87 °F 80 °F 91 °F (2015)
Min Temperature 55 °F 50 °F 39 °F (2005)
Cooling Degree Days 6    
Growing Degree Days 20 (Base 50)    
Moisture  
Dew Point 45 °F    
Average Humidity 44    
Maximum Humidity 74    
Minimum Humidity 18    
Precipitation  
Precipitation 0.03 in - - ()
Sea Level Pressure  
Sea Level Pressure 29.81 in    
Wind  
Wind Speed 7 mph (North)    
Max Wind Speed 17 mph    
Max Gust Speed 24 mph    
Visibility 10 miles    
Events Rain , Thunderstorm    
Averages and records for this station are not official NWS values.
T = Trace of Precipitation, MM = Missing Value Source: NWS Daily Summary

Daily Weather History Graph

Daily Weather History Graph

Search for Another Location

Airport or City:

Astronomy

Sep. 13, 2017 Rise Set
Actual Time 6:45 AM MDT 7:13 PM MDT
Civil Twilight 6:20 AM MDT 7:39 PM MDT
Nautical Twilight 5:50 AM MDT 8:09 PM MDT
Astronomical Twilight 5:19 AM MDT 8:40 PM MDT
Moon No Moon Rise 2:24 PM MDT (9/13)
Length of Visible Light 13h 19m
Length of Day
12h 28m
Last Quarter, 45% of the Moon is Illuminated
Sep 13
Last Quarter
Sep 19
New
Sep 27
First Quarter
Oct 5
Full
Oct 12
Last Quarter

Hourly Weather History & Observations

Time (MDT) Temp. Dew Point Humidity Pressure Visibility Wind Dir Wind Speed Gust Speed Precip Events Conditions
12:53 AM 64.0 °F 48.9 °F 58% 29.83 in 10.0 mi SE 8.1 mph - N/A   Mostly Cloudy
1:53 AM 62.1 °F 48.9 °F 62% 29.84 in 10.0 mi Calm Calm - N/A   Partly Cloudy
2:53 AM 57.0 °F 48.0 °F 72% 29.84 in 10.0 mi North 5.8 mph - N/A   Clear
3:53 AM 55.0 °F 46.9 °F 74% 29.82 in 10.0 mi North 3.5 mph - N/A   Clear
4:53 AM 55.9 °F 46.9 °F 72% 29.84 in 10.0 mi North 9.2 mph - N/A   Clear
5:53 AM 55.9 °F 46.9 °F 72% 29.85 in 10.0 mi North 10.4 mph - N/A   Clear
6:53 AM 55.9 °F 46.0 °F 69% 29.85 in 10.0 mi North 9.2 mph - N/A   Clear
7:53 AM 60.1 °F 45.0 °F 57% 29.87 in 10.0 mi North 17.3 mph - N/A   Clear
8:53 AM 66.9 °F 45.0 °F 45% 29.85 in 10.0 mi North 16.1 mph 24.2 mph N/A   Clear
9:53 AM 72.0 °F 46.0 °F 40% 29.86 in 10.0 mi North 12.7 mph - N/A   Clear
10:53 AM 78.1 °F 45.0 °F 31% 29.82 in 10.0 mi North 13.8 mph 23.0 mph N/A   Clear
11:53 AM 82.9 °F 43.0 °F 24% 29.78 in 10.0 mi North 10.4 mph - N/A   Clear
12:53 PM 84.9 °F 39.9 °F 20% 29.76 in 10.0 mi North 11.5 mph 20.7 mph N/A   Clear
1:53 PM 86.0 °F 37.9 °F 18% 29.74 in 10.0 mi NNW 6.9 mph - N/A   Partly Cloudy
2:28 PM 75.9 °F 53.1 °F 45% 30.07 in 5.0 mi Variable 3.5 mph - 0.01 in Rain , Thunderstorm Light Thunderstorms and Rain
2:43 PM 77.0 °F 54.0 °F 45% 30.05 in 10.0 mi South 8.1 mph - 0.03 in   Scattered Clouds
2:53 PM 81.0 °F 48.9 °F 33% 29.75 in 10.0 mi South 6.9 mph - 0.03 in   Partly Cloudy
3:53 PM 82.0 °F 43.0 °F 25% 29.73 in 10.0 mi Calm Calm - N/A   Partly Cloudy
4:53 PM 84.9 °F 44.1 °F 24% 29.69 in 10.0 mi SE 10.4 mph - N/A   Clear
5:53 PM 81.0 °F 42.1 °F 25% 29.70 in 10.0 mi WSW 3.5 mph - N/A   Clear
6:53 PM 78.1 °F 39.9 °F 25% 29.73 in 10.0 mi South 4.6 mph - N/A   Clear
7:53 PM 75.0 °F 37.9 °F 26% 29.74 in 10.0 mi Calm Calm - N/A   Partly Cloudy
8:53 PM 70.0 °F 39.9 °F 33% 29.76 in 10.0 mi North 8.1 mph - N/A   Clear
9:53 PM 66.0 °F 42.1 °F 42% 29.78 in 10.0 mi North 9.2 mph - N/A   Clear
10:53 PM 64.9 °F 42.1 °F 43% 29.77 in 10.0 mi NE 4.6 mph - N/A   Clear
11:53 PM 59.0 °F 44.1 °F 58% 29.77 in 10.0 mi Variable 4.6 mph - N/A   Clear